Simultaneous Nadir Overpasses (SNOs) Predictions

Prediction of SNOs between METOP-B and TERRA Satellite Orbit:

Table of predicted SNOs for the next 14.0 days since TLE Epoch: 10/11/2025
Index Date (METOP-B) Time (METOP-B) Lat,Lon (METOP-B) SZA (METOP-B ) Date (TERRA) Time (TERRA) Lat,Lon (TERRA) SZA (TERRA ) Distance(km) Time Diff (sec)
1 10/12/2025 20:27:46 73.82,-140.19 81.70 10/12/2025 20:28:12 73.81,-140.25 81.69 1.97 26
2 10/12/2025 21:18:03 -75.08, 30.42 97.17 10/12/2025 21:17:08 -75.06, 30.33 97.17 2.82 55
3 10/15/2025 09:17:09 73.33, 26.36 82.20 10/15/2025 09:17:43 73.32, 26.34 82.19 0.62 34
4 10/15/2025 10:07:24 -74.70,-162.96 96.58 10/15/2025 10:06:37 -74.69,-163.00 96.58 1.45 47
5 10/17/2025 22:06:29 73.02,-166.62 82.85 10/17/2025 22:07:11 73.02,-166.65 82.84 1.11 42
6 10/17/2025 22:56:43 -74.45, 4.08 95.88 10/17/2025 22:56:04 -74.44, 4.02 95.88 1.91 39
7 10/20/2025 10:55:57 72.30, -0.40 83.14 10/20/2025 10:56:46 72.31, -0.34 83.13 2.43 49
8 10/20/2025 11:46:08 -73.90, 170.39 95.46 10/20/2025 11:45:36 -73.91, 170.44 95.45 1.83 32
9 10/22/2025 23:45:11 72.28, 167.26 84.01 10/22/2025 23:46:08 72.28, 167.21 83.99 1.72 57



Historial Predications of SNOs between METOP-B and TERRA
